Zurück zum Katalog

STARLINK-34620

AktivKommunikationVLEO
NORAD 64803·PAYLOAD·🇺🇸 United States

Gestartet Jul 16, 2025 von Vandenberg Space Force Base

Loading…

Nächste Überflüge (nächste 24 Stunden)

TLE

AktuellSource: CelesTrak SupGP

Epoche: Sep 14, 2026, 15:08 UTC

1 64803C 25150P   26257.63104167 -.00013377  00000+0 -11210-2 0  2570
2 64803  70.0031  18.2211 0003577 271.5479 114.0751 14.98336585    18

Verfolge STARLINK-34620 in Echtzeit mit AllMySat

Download on the App Store